CW8896 Weather Reports


time (UTC)temp
C
wind
direction
speed
KPH
gust
KPH
rain 1hr
cm
rain 24hr
cm
rain mn
cm
humidity
%
barometer
mb
20260507100004 19 29 1.6 8.0 0.00 0.00 0.00 58 1012.6
20260507095004 19 72 1.6 8.0 0.00 0.00 0.00 58 1012.5
20260507094004 20 72 3.2 11.3 0.00 0.00 0.00 57 1012.6
20260507090005 18 39 1.6 8.0 0.00 0.00 0.00 61 1012.5
20260507085003 17 62 3.2 12.9 0.00 0.00 0.00 63 1012.5
20260507084004 17 72 1.6 6.4 0.00 0.00 0.00 65 1012.3
20260507082004 17 60 1.6 8.0 0.00 0.00 0.00 65 1012.4
20260507081004 17 64 3.2 11.3 0.00 0.00 0.00 66 1012.4
20260507074004 16 77 1.6 6.4 0.00 0.00 0.00 67 1012.4
20260507073005 17 131 0.0 3.2 0.00 0.00 0.00 66 1012.4
20260507072004 16 72 0.0 3.2 0.00 0.00 0.00 69 1012.4
20260507071004 16 68 0.0 3.2 0.00 0.00 0.00 70 1012.3
20260507070009 15 56 1.6 4.8 0.00 0.00 0.00 71 1012.4
20260507065006 16 60 0.0 3.2 0.00 0.00 0.00 71 1012.4
20260507064004 15 58 0.0 3.2 0.00 0.00 0.00 74 1012.3
20260507063004 15 56 0.0 3.2 0.00 0.00 0.00 76 1012.3
20260507062004 13 346 0.0 1.6 0.00 0.00 0.00 79 1012.3
20260507061004 13 327 0.0 1.6 0.00 0.00 0.00 81 1012.3
20260507060004 12 26 0.0 1.6 0.00 0.00 0.00 82 1012.3
20260507054004 11 298 0.0 3.2 0.00 0.00 0.00 86 1012.1
20260507052004 10 0 0.0 0.0 0.00 0.00 0.00 90 1011.9
20260507050005 8 0 0.0 0.0 0.00 0.00 0.00 91 1011.9
20260507045004 8 0 0.0 0.0 0.00 0.00 0.00 91 1011.8
20260507044003 8 0 0.0 0.0 0.00 0.00 0.00 91 1011.7
20260507042004 9 0 0.0 0.0 0.00 0.00 0.00 90 1011.6
20260507040004 9 0 0.0 0.0 0.00 0.00 0.00 89 1011.7
20260507035004 10 0 0.0 0.0 0.00 0.00 0.00 88 1011.7
20260507034004 10 329 0.0 1.6 0.00 0.00 0.00 88 1011.5
20260507033004 10 329 0.0 1.6 0.00 0.00 0.00 88 1011.6
20260507032003 10 0 0.0 0.0 0.00 0.00 0.00 86 1011.6
20260507031004 11 0 0.0 0.0 0.00 0.00 0.00 85 1011.5
20260507030004 11 0 0.0 0.0 0.00 0.00 0.00 84 1011.6
20260507025004 11 312 0.0 3.2 0.00 0.00 0.00 83 1011.4
20260507024003 11 316 0.0 3.2 0.00 0.00 0.00 82 1011.4
20260507023005 11 329 0.0 1.6 0.00 0.00 0.00 82 1011.3
20260507022004 11 330 0.0 3.2 0.00 0.00 0.00 83 1011.4
20260507021004 11 0 0.0 0.0 0.00 0.00 0.00 83 1011.4
20260507020004 11 336 0.0 1.6 0.00 0.00 0.00 82 1011.4
20260507015004 12 311 0.0 1.6 0.00 0.00 0.00 81 1011.4
20260507014004 12 304 0.0 4.8 0.00 0.00 0.00 82 1011.5
20260507013004 12 311 0.0 3.2 0.00 0.00 0.00 82 1011.3
20260507012004 11 306 0.0 3.2 0.00 0.00 0.00 84 1011.4
20260507011003 11 354 0.0 1.6 0.00 0.00 0.00 84 1011.8
20260507005004 11 94 0.0 1.6 0.00 0.00 0.00 84 1011.6
20260507004005 11 321 0.0 3.2 0.00 0.00 0.00 83 1011.7
20260507003004 12 349 0.0 6.4 0.00 0.00 0.00 82 1011.8
20260507002004 12 312 0.0 6.4 0.00 0.00 0.00 81 1011.9
20260507001003 11 301 0.0 3.2 0.00 0.00 0.00 82 1011.8
20260507000004 12 289 0.0 3.2 0.00 0.00 0.00 82 1012.0
20260506235003 12 307 0.0 1.6 0.00 0.00 0.00 82 1012.1
20260506234004 12 335 0.0 1.6 0.00 0.00 0.00 81 1012.1
20260506233005 12 310 0.0 4.8 0.00 0.00 0.00 80 1012.1
20260506232003 12 319 0.0 6.4 0.00 0.00 0.00 80 1012.1
20260506231004 12 311 0.0 8.0 0.00 0.00 0.00 79 1012.2
20260506230004 12 306 0.0 4.8 0.00 0.00 0.00 79 1012.0
20260506225004 12 324 0.0 4.8 0.00 0.03 0.00 78 1011.9
20260506224004 12 315 0.0 4.8 0.00 0.03 0.00 78 1011.8
20260506223004 13 308 1.6 6.4 0.00 0.05 0.00 77 1011.8
20260506222004 13 306 1.6 6.4 0.00 0.08 0.00 76 1011.7
20260506221004 13 312 0.0 6.4 0.00 0.15 0.00 76 1011.7
20260506220008 13 310 0.0 4.8 0.00 0.25 0.00 76 1011.6
20260506215003 13 261 0.0 1.6 0.00 0.33 0.25 77 1011.5
20260506212004 13 0 0.0 0.0 0.00 0.46 0.25 75 1011.6
20260506211004 13 295 0.0 1.6 0.00 0.48 0.25 74 1011.6
20260506210004 13 288 0.0 1.6 0.00 0.48 0.25 73 1011.6
20260506205004 14 319 0.0 6.4 0.00 0.51 0.25 72 1011.6
20260506204004 14 294 0.0 1.6 0.00 0.51 0.25 73 1011.6
20260506202003 14 287 0.0 1.6 0.00 0.56 0.25 71 1011.4
20260506201004 14 325 0.0 3.2 0.00 0.58 0.25 70 1011.4
20260506200004 14 76 0.0 1.6 0.00 0.64 0.25 70 1011.3
20260506195004 14 314 0.0 3.2 0.00 0.69 0.25 70 1011.2
20260506194004 15 354 0.0 1.6 0.00 0.71 0.25 68 1010.9
20260506193005 15 35 0.0 3.2 0.00 0.71 0.25 67 1010.6
20260506192003 15 335 0.0 11.3 0.00 0.71 0.25 67 1010.4
20260506190005 15 187 0.0 3.2 0.00 0.71 0.25 65 1010.0
20260506185004 15 200 0.0 3.2 0.00 0.71 0.25 63 1010.0
20260506184003 16 177 0.0 8.0 0.00 0.79 0.25 63 1009.9
20260506181004 16 327 0.0 4.8 0.00 0.79 0.25 61 1009.5
20260506180005 17 299 1.6 9.7 0.00 0.79 0.25 59 1009.3
20260506175004 17 307 3.2 14.5 0.00 0.79 0.25 57 1009.2
20260506174004 17 324 1.6 11.3 0.00 0.79 0.25 56 1009.0
20260506173004 18 323 1.6 11.3 0.00 0.79 0.25 55 1009.0
20260506172003 18 312 1.6 9.7 0.00 0.79 0.25 54 1008.8
20260506171003 18 307 3.2 12.9 0.00 0.79 0.25 53 1008.8
20260506170005 19 319 4.8 16.1 0.00 0.79 0.25 52 1008.8
20260506165003 20 308 4.8 12.9 0.00 0.79 0.25 52 1008.7
20260506164004 20 317 3.2 9.7 0.00 0.79 0.25 49 1008.6
20260506163004 20 309 4.8 14.5 0.00 0.79 0.25 49 1008.6
20260506162003 20 308 4.8 11.3 0.00 0.79 0.25 49 1008.3
20260506161004 20 319 1.6 12.9 0.00 0.81 0.25 49 1008.3
20260506160004 21 312 3.2 12.9 0.00 0.81 0.25 46 1008.4
20260506155004 21 310 3.2 12.9 0.00 0.81 0.25 46 1008.3
20260506154004 21 318 3.2 17.7 0.00 0.81 0.25 46 1008.4
20260506153004 21 312 3.2 14.5 0.00 0.81 0.25 46 1008.3
20260506152003 21 312 3.2 16.1 0.00 0.81 0.25 48 1008.4
20260506151004 21 310 1.6 9.7 0.00 0.81 0.25 48 1008.4
20260506150004 21 5 1.6 9.7 0.00 0.81 0.25 47 1008.3
20260506145004 22 330 1.6 11.3 0.00 0.81 0.25 42 1008.4
20260506144003 22 309 1.6 8.0 0.00 0.81 0.25 46 1008.4
20260506143005 22 342 1.6 6.4 0.00 0.81 0.25 45 1008.5
20260506142004 22 207 1.6 6.4 0.00 0.81 0.25 45 1008.5
20260506140005 21 307 1.6 16.1 0.00 0.81 0.25 48 1008.6
20260506135004 22 297 1.6 14.5 0.00 0.81 0.25 46 1008.8
20260506134004 22 301 1.6 14.5 0.00 0.81 0.25 41 1008.9
20260506133004 22 297 1.6 8.0 0.00 0.81 0.25 46 1008.8
20260506132005 21 301 1.6 6.4 0.00 0.81 0.25 44 1008.8
20260506131003 21 319 3.2 16.1 0.00 0.81 0.25 46 1008.9
20260506130005 20 317 3.2 14.5 0.00 0.81 0.25 52 1008.9
20260506124004 22 248 1.6 9.7 0.00 0.81 0.25 46 1009.0
20260506123004 21 300 1.6 11.3 0.00 0.81 0.25 49 1009.1
20260506122004 21 331 1.6 6.4 0.00 0.81 0.25 50 1009.2
20260506121003 20 312 1.6 8.0 0.00 0.81 0.25 52 1009.2
20260506115004 21 321 3.2 16.1 0.00 0.81 0.25 49 1009.2
20260506113004 20 311 3.2 11.3 0.00 0.81 0.25 53 1009.3
20260506112004 21 314 1.6 9.7 0.00 0.81 0.25 51 1009.3
20260506110004 19 321 3.2 11.3 0.00 0.81 0.25 55 1009.4
20260506105004 19 322 3.2 12.9 0.00 0.81 0.25 53 1009.6
20260506104004 18 311 3.2 9.7 0.00 0.81 0.25 56 1009.7
20260506103004 19 315 4.8 12.9 0.00 0.81 0.25 53 1009.8
20260506102004 19 310 3.2 9.7 0.00 0.81 0.25 56 1009.6
20260506101003 19 315 3.2 14.5 0.00 0.81 0.25 59 1009.6